This demonstration page uses our WeatherBlox Daily Observations layout. Learn more.

Left ArrowRight Arrow

Hourly Observations for May 3, 2020

Temp ( °F °C ) Dew Point ( °F °C ) Humidity (%) Winds ( mph kmh ) Pressure ( in mb ) Visibility ( mi km ) Precip ( " mm )
12:54 am 00:54 Clear 52 11.1 42 5.6 69 69 NNW 5 7 30.03 1017 10 16.0934 0 0
1:54 am 01:54 Mostly Cloudy 56 13.3 44 6.7 65 65 WNW 3 6 30.04 1017 10 16.0934 0 0
2:54 am 02:54 Mostly Clear 57 13.9 44 6.7 62 62 NNW 5 7 30.01 1016 10 16.0934 0 0
3:54 am 03:54 Mostly Clear 54 12.2 45 7.2 72 72 NNE 3 6 30 1016 10 16.0934 0 0
4:54 am 04:54 Cloudy 54 12.2 46 7.8 75 75 Calm 30.02 1017 10 16.0934 0 0
5:54 am 05:54 Cloudy 55 12.8 46 7.8 72 72 Calm 30.04 1017 10 16.0934 0 0
6:54 am 06:54 Cloudy 56 13.3 47 8.3 72 72 ENE 3 6 30.04 1017 10 16.0934 0 0
7:54 am 07:54 Mostly Cloudy 58 14.4 45 7.2 62 62 N 6 9 30.04 1017 10 16.0934 0 0
8:54 am 08:54 Cloudy 61 16.1 46 7.8 58 58 NNE 7 11 30.05 1018 10 16.0934 0 0
9:54 am 09:54 Cloudy 65 18.3 43 6.1 45 45 NE 9 15 30.05 1018 10 16.0934 0 0
10:54 am 10:54 Mostly Cloudy 68 20 43 6.1 40 40 ENE 10 17 30.04 1017 10 16.0934 0 0
11:54 am 11:54 Cloudy 69 20.6 41 5 36 36 VRB 7 11 30.04 1017 10 16.0934 0 0
12:54 pm 12:54 Cloudy 73 22.8 37 2.8 27 27 E 8 13 30.02 1017 10 16.0934 0 0
1:54 pm 13:54 Sunny 75 23.9 34 1.1 22 22 VRB 3 6 29.99 1016 10 16.0934 0 0
2:54 pm 14:54 Mostly Sunny 78 25.6 36 2.2 22 22 NNW 6 9 29.98 1015 10 16.0934 0 0
3:54 pm 15:54 Sunny 76 24.4 36 2.2 23 23 S 8 13 29.96 1015 10 16.0934 0 0
4:54 pm 16:54 Sunny 78 25.6 36 2.2 22 22 Calm 29.96 1014 10 16.0934 0 0
5:54 pm 17:54 Sunny 77 25 36 2.2 23 23 Calm 29.94 1014 10 16.0934 0 0
6:54 pm 18:54 Sunny 76 24.4 37 2.8 24 24 ESE 3 6 29.93 1014 10 16.0934 0 0
7:54 pm 19:54 Sunny 71 21.7 37 2.8 29 29 ESE 7 11 29.94 1014 10 16.0934 0 0
8:54 pm 20:54 Clear 71 21.7 36 2.2 28 28 ESE 6 9 29.96 1014 10 16.0934 0 0
9:54 pm 21:54 Clear 68 20 36 2.2 31 31 ESE 6 9 29.98 1015 10 16.0934 0 0
10:54 pm 22:54 Clear 65 18.3 37 2.8 36 36 SE 3 6 29.98 1015 10 16.0934 0 0
11:54 pm 23:54 Clear 64 17.8 40 4.4 41 41 SSE 10 17 29.95 1014 10 16.0934 0 0

Powered by AerisWeather